User: anonymous   Login
Location: Ciudad Delicias
(28.2170°N, 105.4670°W)
Time: 01:23:01
(UTC-07:00)
Language:

ETS-7 - Orbit

View from above orbital plane
View from above orbital plane
View from above satellite
View from above satellite

Ground track
Ground track

The orbit data is extracted from the following two-line orbital elements,

1 25064U 97074B   15110.20236561  .00071909  00000-0  60320-3 0  9997
2 25064 034.9548 036.2834 0001465 254.3587 252.0858 15.68719301969036
Epoch (UTC): 20 April 2015 04:51:24
Eccentricity: 0.0001465
inclination: 34.9548°
perigee height: 361 km
apogee height: 363 km
right ascension of ascending node: 36.2834°
argument of perigee: 254.3587°
revolutions per day: 15.68719301
mean anomaly at epoch: 252.0858°
orbit number at epoch: 96903

The dashed part of the orbit path shows where the satellite is in the earth's shadow,  

DLR